Regional Weather Roundup
Issued by NWS

Home | Current Version | Previous Version | Graphics & Text | Print | Product List | Glossary On
Versions: 1 2 3 4 5 6 7 8 9 10 11 12 13 14 15 16 17 18 19 20 21 22 23 24 25 26 27
000
ASUS45 KBOU 110610
RWRCO

WEATHER ROUNDUP FOR COLORADO
NATIONAL WEATHER SERVICE DENVER/BOULDER CO
1100 PM MST SUN DEC 10 2017

NOTE: "FAIR" INDICATES FEW OR NO CLOUDS BELOW 12000 FEET WITH NO
SIGNIFICANT WEATHER AND/OR OBSTRUCTIONS TO VISIBILITY.

COZ001>005-013-030-031-110700-
...NORTHWEST COLORADO...

CITY           SKY/WX    TMP DP  RH WIND       PRES   REMARKS
CRAIG          FAIR       8   4  83 CALM      30.55R
HAYDEN         FAIR      24  11  57 E15       30.54R WCI  11
MEEKER         FAIR      19   3  49 CALM      30.54S
RABBIT EARS PA FAIR      25  -2  30 W6        30.55S WCI  18
STEAMBOAT SPGS FAIR      20   8  61 NW3       30.54S
WALDEN         FAIR      14   0  52 SE8       30.53R WCI   3
$$

COZ006>008-011-110700-
...WEST CENTRAL VALLEYS...

CITY           SKY/WX    TMP DP  RH WIND       PRES   REMARKS
GRAND JUNCTION FAIR      20   1  43 SE5       30.54R WCI  13
MONTROSE       FAIR      20   1  43 SE7       30.57R WCI  11
EAGLE          FAIR      12   6  77 CALM      30.63S
RIFLE          FAIR      20   4  50 SE7       30.56S WCI  11
DELTA          FAIR      26  -3  28 CALM      30.57R
NUCLA          FAIR      27  -9  20 E8        30.55S WCI  18
$$

COZ017>023-064>068-110700-
...SOUTHWEST COLORADO...

CITY           SKY/WX    TMP DP  RH WIND       PRES   REMARKS
DURANGO        FAIR      15  -1  49 NE3       30.50R
CORTEZ         FAIR      11  -1  58 NE7       30.52R WCI   0
PAGOSA SPRINGS FAIR      23  -5  29 CALM      30.51S
TELLURIDE      FAIR      29 -10  18 SE7       30.56S WCI  22
WOLF CREEK PAS FAIR      30 -13  15 NW3       30.65S
$$

COZ009-010-012-014-032>034-037-058>063-110700-
...CENTRAL COLORADO...

CITY           SKY/WX    TMP DP  RH WIND       PRES   REMARKS
ASPEN          FAIR      18   2  49 S8        30.55R WCI   8
BUENA VISTA    FAIR      30  -6  21 W3        30.51R
COPPER MTN     NOT AVBL
BERTHOUD PASS  FAIR      19   9  63 NW31G39   30.53F WCI   0
COTTONWOOD PAS FAIR      39 -18   8 W6        30.54R
GUNNISON       FAIR       9  -1  64 NE3       30.61R
KREMMLING      FAIR       3   0  85 CALM      30.61F
LEADVILLE      FAIR      15 -10  32 NE6       30.56R WCI   6
MONARCH PASS   FAIR      28 -15  14 W12       30.69S WCI  18
SALIDA         FAIR      26  -4  26 CALM      30.58R
SUNLIGHT       FAIR      30 -17  12 N6        30.63F WCI  24
WILKERSON PASS FAIR      30 -13  15 N7        30.58R WCI  23
$$

COZ069>075-110700-
...SAN LUIS VALLEY/SANGRE DE CRISTO MOUNTAINS...

CITY           SKY/WX    TMP DP  RH WIND       PRES   REMARKS
ALAMOSA        FAIR       4  -9  55 S3        30.51R
DEL NORTE      FAIR      20 -10  26 W14       30.52R WCI   7
LA VETA PASS   FAIR      28 -11  17 SW21        N/A  WCI  15
SAGUACHE       FAIR      27 -11  18 N7        30.52S WCI  19
$$

COZ035-036-038>040-110700-
...NORTHERN COLORADO FRONT RANGE...

CITY           SKY/WX    TMP DP  RH WIND       PRES   REMARKS
DENVER INTL AP FAIR      42  -5  13 SW16      30.31F
DMNS CITY PARK NOT AVBL
AURORA         CLEAR     36  -4  18 S10       30.33F
FRONT RANGE AP FAIR      44  -4  13 SW15      30.32F
ERIE MUNI ARPT FAIR      25  10  52 CALM      30.35F
BOULDER MUN AP FAIR      52   0  11 SW7       30.29F
CENTENNIAL     FAIR      40  -1  18 SW8       30.34S
BROOMFIELD     FAIR      45  -2  14 SW7       30.31F
FORT COLLINS   FAIR      32  10  40 CALM      30.31R
LONGMONT       FAIR      26  11  53 NE5       30.32S WCI  20
$$

COZ041-046-047-076>085-087-088-110700-
...PIKES PEAK/PALMER DIVIDE AND SOUTHERN FOOTHILLS...

CITY           SKY/WX    TMP DP  RH WIND       PRES   REMARKS
COLO. SPRINGS  FAIR      33  -3  21 N8        30.36F WCI  26
A. F. ACADEMY  FAIR      23  -5  28 N13       30.37S WCI  11
SCHRIEVER AFB  FAIR      31  -1  25 CALM      30.36F
CHEYENNE MTN   FAIR      47  -7  10 CALM      30.32S
ELLICOTT         N/A    N/A N/A N/A CALM      30.34F
FALCON         FAIR      35  -9  15 NW10      30.38S WCI  27
FORT CARSON    FAIR      31  -3  23 N8        30.34F WCI  23
LIMON          FAIR      28  -3  26 N6        30.33S WCI  22
MONUMENT HILL  FAIR      30  -4  22 W9        30.40S WCI  22
CANON CITY     FAIR      43  -2  15 W15       30.35R
WALSENBURG     FAIR      41  -6  13 SW13      30.37S
TRINIDAD       FAIR      36   5  27 W18       30.36S
$$

COZ042>045-048>051-090-091-110700-
...NORTHEAST COLORADO...

CITY           SKY/WX    TMP DP  RH WIND       PRES   REMARKS
GREELEY ARPT   FAIR      19   4  51 W3        30.33R
AKRON          FAIR      32  -2  23 W10       30.30R WCI  24
BURLINGTON     FAIR      32   2  27 W12       30.28F WCI  23
WRAY           FAIR      30   1  29 W12       30.27R WCI  21
YUMA           FAIR      27   1  33 W10       30.27F WCI  17
STERLING       FAIR      23   5  46 S8        30.28S WCI  14
HOLYOKE        FAIR      43   5  21 W14       30.25R
FORT MORGAN    FAIR      27  -1  30 W10       30.32R WCI  17
$$

COZ086-089-092>099-110700-
...SOUTHEAST COLORADO...

CITY           SKY/WX    TMP DP  RH WIND       PRES   REMARKS
PUEBLO         FAIR      28   2  32 CALM      30.35R
LA JUNTA       FAIR      28   4  35 W10       30.32S WCI  19
LAMAR          FAIR      23   0  36 W7        30.29R WCI  15
SPRINGFIELD      N/A     24   4  42 SW3       30.30F
$$




USA.gov is the U.S. government's official web portal to all federal, state and local government web resources and services.